Location: Unspecified
(0.0000°N, 0.0000°E)
Time: 18:57:39
(UTC+00:00)

DMSP 5D-2 F-14 - Pass Details

Date: 08 June 2023
Orbit: 831 x 845 km, 98.9° (Epoch: 30 September)

Event Time Altitude Azimuth Distance (km) Brightness Sun altitude
Exits shadow 21:03:03 20° 291° (WNW) 1,835 6.9 -41.5°
Drops below altitude 10° 21:05:16 10° 312° (NW) 2,430 7.7 -42.0°
Sets 21:08:00 0° 324° (NW) 3,361 8.5 -42.5°
